Location: Drocourt
(49.0571°N, 1.7669°E)
Time: 20:56:02
(UTC+00:00)

Transit 2A Rocket - All Passes

Search period start: 12 April 2024 00:00
Search period end: 22 April 2024 00:00
Orbit: 587 x 907 km, 66.7° (Epoch: 11 April)

Date Brightness Start Highest point End Pass type
(mag) Time Alt. Az. Time Alt. Az. Time Alt. Az.
12 Apr - 12:22:55 10° SE 12:25:42 16° ESE 12:28:36 10° ENE daylight
12 Apr - 14:02:59 10° SW 14:07:27 74° NW 14:12:22 10° NNE daylight
12 Apr - 15:47:29 10° WNW 15:50:52 19° NNW 15:54:27 10° NNE daylight
12 Apr - 17:34:11 10° NNW 17:35:29 11° N 17:36:48 10° NNE daylight
12 Apr - 19:17:00 10° NNW 19:20:16 16° NNE 19:23:39 10° ENE visible
12 Apr - 20:58:51 10° NNW 21:04:03 46° NE 21:09:38 10° ESE visible
12 Apr - 22:41:26 10° NW 22:46:35 40° WSW 22:52:02 10° S visible
13 Apr - 13:19:09 10° SSW 13:23:35 66° ESE 13:28:25 10° NE daylight
13 Apr - 15:02:38 10° W 15:06:32 26° NW 15:10:42 10° NNE daylight
13 Apr - 16:49:06 10° NNW 16:50:53 12° N 16:52:43 10° N daylight
13 Apr - 18:33:15 10° NNW 18:35:45 13° NNE 18:38:20 10° NE daylight
13 Apr - 20:15:05 10° NNW 20:19:54 32° NE 20:25:02 10° ESE visible
13 Apr - 21:57:19 10° NW 22:02:46 64° WSW 22:08:36 10° SSE visible
13 Apr - 23:42:25 10° W 23:44:24 12° WSW 23:46:25 10° WSW visible
14 Apr - 12:35:43 10° S 12:39:50 37° ESE 12:44:16 10° NE daylight
14 Apr - 14:18:03 10° WSW 14:22:18 37° NW 14:26:56 10° NNE daylight
14 Apr - 16:03:51 10° NW 16:06:19 14° NNW 16:08:53 10° NNE daylight
14 Apr - 17:49:22 10° NNW 17:51:10 12° N 17:53:00 10° NNE daylight
14 Apr - 19:31:20 10° NNW 19:35:38 24° NE 19:40:10 10° E visible
14 Apr - 21:13:22 10° NW 21:18:52 84° NE 21:24:46 10° SE visible
14 Apr - 22:56:51 10° WNW 23:00:52 20° WSW 23:05:01 10° SSW visible
15 Apr - 11:52:49 10° SSE 11:56:13 22° ESE 11:59:49 10° ENE daylight
15 Apr - 13:33:44 10° SW 13:38:12 58° NW 13:43:06 10° NNE daylight
15 Apr - 15:18:42 10° WNW 15:21:50 17° NNW 15:25:08 10° NNE daylight
15 Apr - 17:05:09 10° NNW 17:06:33 11° N 17:07:59 10° NNE daylight
15 Apr - 18:47:36 10° NNW 18:51:15 18° NNE 18:55:05 10° ENE daylight
15 Apr - 20:29:30 10° NNW 20:34:52 56° NE 20:40:38 10° SE visible
15 Apr - 22:12:18 10° NW 22:17:13 32° WSW 22:22:24 10° S visible
16 Apr - 11:10:59 10° SE 11:12:43 12° ESE 11:14:30 10° E daylight
16 Apr - 12:49:44 10° SSW 12:54:14 85° SE 12:59:11 10° NE daylight
16 Apr - 14:33:44 10° W 14:37:25 22° NNW 14:41:23 10° NNE daylight
16 Apr - 16:20:19 10° NNW 16:21:55 11° N 16:23:34 10° NNE daylight
16 Apr - 18:03:51 10° NNW 18:06:46 15° NNE 18:09:48 10° NE daylight
16 Apr - 19:45:42 10° NNW 19:50:45 38° NE 19:56:10 10° ESE visible
16 Apr - 21:28:05 10° NW 21:33:28 51° WSW 21:39:10 10° SSE visible
17 Apr - 12:06:06 10° SSW 12:10:25 49° ESE 12:15:08 10° NE daylight
17 Apr - 13:49:00 10° WSW 13:53:08 31° NW 13:57:37 10° NNE daylight
17 Apr - 15:35:08 10° NW 15:37:20 13° NNW 15:39:36 10° NNE daylight
17 Apr - 17:20:01 10° NNW 17:22:12 12° NNE 17:24:28 10° NE daylight
17 Apr - 19:01:56 10° NNW 19:06:32 28° NE 19:11:25 10° E daylight
17 Apr - 20:44:04 10° NW 20:49:36 80° WSW 20:55:32 10° SSE visible
17 Apr - 22:28:06 10° WNW 22:31:25 16° WSW 22:34:50 10° SW visible
18 Apr - 11:22:54 10° S 11:26:44 28° ESE 11:30:51 10° NE daylight
18 Apr - 13:04:32 10° WSW 13:08:58 46° NW 13:13:48 10° NNE daylight
18 Apr - 14:49:55 10° WNW 14:52:47 15° NNW 14:55:48 10° NNE daylight
18 Apr - 16:35:58 10° NNW 16:37:35 11° N 16:39:16 10° NNE daylight
18 Apr - 18:18:10 10° NNW 18:22:12 21° NNE 18:26:25 10° ENE daylight
18 Apr - 20:00:09 10° NNW 20:05:38 68° NE 20:11:32 10° SE visible
18 Apr - 21:43:14 10° WNW 21:47:49 26° WSW 21:52:36 10° SSW visible
19 Apr - 10:40:23 10° SE 10:43:11 16° ESE 10:46:06 10° ENE daylight
19 Apr - 12:20:23 10° SW 12:24:55 75° NW 12:29:55 10° NNE daylight
19 Apr - 14:04:51 10° WNW 14:08:20 20° NNW 14:12:02 10° NNE daylight
19 Apr - 15:51:24 10° NNW 15:52:57 11° N 15:54:32 10° NNE daylight
19 Apr - 17:34:25 10° NNW 17:37:45 16° NNE 17:41:13 10° ENE daylight
19 Apr - 19:16:18 10° NNW 19:21:34 46° NE 19:27:12 10° ESE visible
19 Apr - 20:58:53 10° NW 21:04:06 41° WSW 21:09:38 10° S visible
20 Apr - 11:36:33 10° SSW 11:41:01 65° ESE 11:45:55 10° NE daylight
20 Apr - 13:20:00 10° W 13:23:59 26° NW 13:28:15 10° NNE daylight
20 Apr - 15:06:21 10° NNW 15:08:20 12° N 15:10:22 10° NNE daylight
20 Apr - 16:50:36 10° NNW 16:53:13 14° NNE 16:55:54 10° NE daylight
20 Apr - 18:32:30 10° NNW 18:37:23 32° NE 18:42:35 10° ESE daylight
20 Apr - 20:14:46 10° NW 20:20:17 65° WSW 20:26:10 10° SSE visible
20 Apr - 21:59:42 10° W 22:01:55 12° WSW 22:04:10 10° SW visible
21 Apr - 10:53:07 10° S 10:57:16 37° ESE 11:01:45 10° NE daylight
21 Apr - 12:35:24 10° WSW 12:39:44 38° NW 12:44:28 10° NNE daylight
21 Apr - 14:21:08 10° NW 14:23:45 14° NNW 14:26:28 10° NNE daylight
21 Apr - 16:06:39 10° NNW 16:08:36 12° N 16:10:37 10° NNE daylight
21 Apr - 17:48:44 10° NNW 17:53:06 24° NNE 17:57:42 10° E daylight
21 Apr - 19:30:47 10° NW 19:36:22 83° NE 19:42:20 10° SE visible
21 Apr - 21:14:15 10° WNW 21:18:22 21° WSW 21:22:38 10° SSW visible
